, FL

(GMT )
Bonifay

Weather History for K1J0 - August, 2019

Change the Weather History Date:

Tuesday, August 20, 2019

  Actual Average Record
Temperature  
Mean Temperature 80 °F -  
Max Temperature 88 °F - - ()
Min Temperature 73 °F - - ()
Cooling Degree Days 16    
Growing Degree Days 30 (Base 50)    
Moisture  
Dew Point 73 °F    
Average Humidity 82    
Maximum Humidity 97    
Minimum Humidity 59    
Precipitation  
Precipitation 0.00 in - - ()
Sea Level Pressure  
Sea Level Pressure 29.99 in    
Wind  
Wind Speed 2 mph (South)    
Max Wind Speed 12 mph    
Max Gust Speed -    
Visibility 10 miles    
Events Rain , Thunderstorm    
T = Trace of Precipitation, MM = Missing Value Source: NWS Daily Summary

Daily Weather History Graph

Daily Weather History Graph

Search for Another Location

Airport or City:

Astronomy

Aug. 20, 2019 Rise Set
Actual Time 7:11 AM EDT 8:19 PM EDT
Civil Twilight 6:46 AM EDT 8:44 PM EDT
Nautical Twilight 6:16 AM EDT 9:14 PM EDT
Astronomical Twilight 5:45 AM EDT 9:45 PM EDT
Moon 11:27 PM EDT (8/20) 11:31 AM EDT (8/20)
Length of Visible Light 13h 58m
Length of Day
13h 08m
Waning Gibbous, 78% of the Moon is Illuminated
Aug 20
Waning Gibbous
Aug 23
Last Quarter
Aug 30
New
Sep 5
First Quarter
Sep 14
Full

Hourly Weather History & Observations

Time (EDT) Temp. Heat Index Dew Point Humidity Pressure Visibility Wind Dir Wind Speed Gust Speed Precip Events Conditions
1:58 AM 75.0 °F - 73.0 °F 94% 29.96 in 10.0 mi Calm Calm - N/A   Clear
2:58 AM 75.0 °F - 73.0 °F 94% 29.95 in 10.0 mi Calm Calm - N/A   Mostly Cloudy
3:58 AM 75.0 °F - 73.0 °F 94% 29.94 in 10.0 mi Calm Calm - N/A   Partly Cloudy
4:58 AM 73.9 °F - 73.0 °F 97% 29.94 in 10.0 mi SSE 3.5 mph - N/A   Clear
6:58 AM 73.0 °F - 72.0 °F 96% 29.96 in 6.0 mi Calm Calm - N/A   Clear
7:58 AM 73.9 °F - 72.0 °F 93% 29.98 in 8.0 mi Calm Calm - N/A   Clear
8:58 AM 75.9 °F - 73.9 °F 94% 30.00 in 9.0 mi Calm Calm - N/A   Clear
9:58 AM 79.0 °F - 75.0 °F 88% 29.99 in 10.0 mi SSE 3.5 mph - N/A   Clear
10:58 AM 81.0 °F 86.7 °F 75.0 °F 82% 29.99 in 10.0 mi South 8.1 mph - N/A   Clear
11:58 AM 84.9 °F 92.1 °F 73.9 °F 69% 29.99 in 10.0 mi SE 6.9 mph - N/A   Partly Cloudy
12:39 PM 88.0 °F 96.5 °F 73.9 °F 63% 30.11 in 10.0 mi Calm Calm - N/A   Mostly Cloudy
12:58 PM 86.0 °F 93.8 °F 73.9 °F 67% 29.99 in 10.0 mi South 4.6 mph - N/A   Overcast
1:58 PM 87.1 °F 92.8 °F 71.1 °F 59% 29.98 in 10.0 mi SSW 5.8 mph - N/A   Clear
2:58 PM 82.9 °F 89.4 °F 73.9 °F 74% 29.98 in 10.0 mi South 11.5 mph - N/A   Scattered Clouds
3:58 PM 82.0 °F 87.9 °F 73.9 °F 76% 29.97 in 10.0 mi West 5.8 mph - 0.00 in Thunderstorm Thunderstorm
4:58 PM 81.0 °F 86.2 °F 73.9 °F 79% 29.97 in 10.0 mi Calm Calm - 0.00 in   Partly Cloudy
5:19 PM 81.0 °F 86.2 °F 73.9 °F 79% 30.09 in 10.0 mi Calm Calm - N/A Thunderstorm Clear
5:34 PM 82.0 °F 87.9 °F 73.9 °F 76% 30.09 in 10.0 mi North 3.5 mph - N/A   Clear
5:58 PM 82.0 °F 87.9 °F 73.9 °F 76% 29.97 in 10.0 mi North 4.6 mph - N/A Thunderstorm Thunderstorm
6:13 PM 82.0 °F 87.9 °F 73.9 °F 76% 30.08 in 10.0 mi Calm Calm - N/A   Clear
6:58 PM 82.0 °F 85.9 °F 70.0 °F 67% 29.95 in 10.0 mi Variable 5.8 mph - N/A   Clear
8:58 PM 75.9 °F - 72.0 °F 87% 29.96 in 10.0 mi Calm Calm - 0.00 in Rain Light Rain
9:58 PM 75.0 °F - 72.0 °F 90% 29.97 in 10.0 mi Calm Calm - 0.00 in   Clear
10:58 PM 75.0 °F - 72.0 °F 90% 30.00 in 10.0 mi Calm Calm - N/A   Partly Cloudy
11:58 PM 75.0 °F - 72.0 °F 90% 30.00 in 10.0 mi Calm Calm - N/A   Clear